Location: Maddington
(51.2000°N, 1.9167°W)
Time: 23:24:15
(UTC+00:00)

CZ-2C R/B - Pass Details

Date: 18 September 2020
Orbit: 785 x 870 km, 98.2° (Epoch: 31 October)

Event Time Altitude Azimuth Distance (km) Brightness Sun altitude
Rises 20:56:25 0° 10° (N) 3,405 6.2 -24.4°
Reaches altitude 10° 20:58:53 10° 3° (N) 2,478 5.5 -24.7°
Maximum altitude 21:03:59 40° 295° (WNW) 1,237 4.0 -25.4°
Drops below altitude 10° 21:09:08 10° 228° (SW) 2,503 5.2 -26.0°
Sets 21:11:39 0° 221° (SW) 3,442 5.9 -26.3°
